| time (UTC) | temp C | wind direction | speed KPH | gust KPH | rain 1hr cm | rain 24hr cm | rain mn cm | humidity % | barometer mb |
| 20260503050113 | 15 | 140 | 0.0 | 0.0 | 0.00 | 0.00 | 0.00 | 82 | 1010.3 |
| 20260503044652 | 16 | 140 | 0.0 | 6.4 | 0.00 | 0.00 | 0.00 | 82 | 1010.5 |
| 20260503043119 | 16 | 139 | 0.0 | 0.0 | 0.00 | 0.00 | 0.00 | 81 | 1010.2 |
| 20260503041703 | 16 | 138 | 0.0 | 0.0 | 0.00 | 0.00 | 0.00 | 79 | 1009.8 |
| 20260503040207 | 17 | 135 | 0.0 | 0.0 | 0.00 | 0.00 | 0.00 | 77 | 1009.8 |
| 20260503034646 | 17 | 134 | 0.0 | 0.0 | 0.00 | 0.00 | 0.00 | 75 | 1009.8 |
| 20260503033133 | 17 | 127 | 0.0 | 4.8 | 0.00 | 0.00 | 0.00 | 76 | 1009.7 |
| 20260503031701 | 18 | 128 | 0.0 | 0.0 | 0.00 | 0.00 | 0.00 | 71 | 1009.8 |
| 20260503030150 | 18 | 126 | 0.0 | 0.0 | 0.00 | 0.00 | 0.00 | 71 | 1009.8 |
| 20260503024657 | 19 | 124 | 0.0 | 0.0 | 0.00 | 0.00 | 0.00 | 70 | 1009.7 |
| 20260503023200 | 20 | 119 | 0.0 | 0.0 | 0.00 | 0.00 | 0.00 | 66 | 1009.7 |
| 20260503021647 | 20 | 119 | 0.0 | 0.0 | 0.00 | 0.00 | 0.00 | 68 | 1009.5 |
| 20260503020145 | 20 | 120 | 0.0 | 4.8 | 0.00 | 0.00 | 0.00 | 67 | 1009.6 |
| 20260503014630 | 20 | 103 | 0.0 | 1.6 | 0.00 | 0.00 | 0.00 | 68 | 1009.6 |
| 20260503013141 | 20 | 103 | 0.0 | 0.0 | 0.00 | 0.00 | 0.00 | 69 | 1009.7 |
| 20260503011641 | 19 | 112 | 0.0 | 6.4 | 0.00 | 0.00 | 0.00 | 70 | 1009.5 |
| 20260503010135 | 19 | 123 | 0.0 | 0.0 | 0.00 | 0.00 | 0.00 | 69 | 1009.5 |
| 20260503004652 | 20 | 118 | 0.0 | 4.8 | 0.00 | 0.00 | 0.00 | 66 | 1009.6 |
| 20260503003137 | 21 | 93 | 0.0 | 3.2 | 0.00 | 0.00 | 0.00 | 64 | 1009.5 |
| 20260503001617 | 21 | 261 | 0.0 | 14.5 | 0.00 | 0.00 | 0.00 | 66 | 1009.6 |
| 20260503000128 | 20 | 190 | 3.2 | 8.0 | 0.00 | 0.00 | 0.00 | 68 | 1009.9 |
| 20260502234628 | 20 | 137 | 0.0 | 6.4 | 0.00 | 0.00 | 0.00 | 65 | 1010.0 |
| 20260502233127 | 19 | 145 | 0.0 | 0.0 | 0.00 | 0.00 | 0.00 | 68 | 1010.2 |
| 20260502231557 | 19 | 139 | 1.6 | 11.3 | 0.00 | 0.00 | 0.00 | 69 | 1010.4 |
| 20260502230210 | 19 | 157 | 0.0 | 14.5 | 0.00 | 0.00 | 0.00 | 69 | 1010.8 |
| 20260502224653 | 18 | 229 | 0.0 | 9.7 | 0.00 | 0.00 | 0.00 | 70 | 1010.9 |
| 20260502223152 | 18 | 225 | 0.0 | 11.3 | 0.00 | 0.00 | 0.00 | 69 | 1011.3 |
| 20260502221706 | 18 | 252 | 1.6 | 12.9 | 0.00 | 0.00 | 0.00 | 68 | 1011.6 |
| 20260502220213 | 17 | 110 | 1.6 | 11.3 | 0.00 | 0.00 | 0.00 | 71 | 1011.7 |
| 20260502214641 | 17 | 189 | 4.8 | 11.3 | 0.00 | 0.00 | 0.00 | 73 | 1012.0 |
| 20260502213159 | 16 | 229 | 4.8 | 11.3 | 0.00 | 0.00 | 0.00 | 74 | 1012.1 |
| 20260502211640 | 15 | 306 | 1.6 | 8.0 | 0.00 | 0.00 | 0.00 | 75 | 1012.4 |
| 20260502210220 | 15 | 288 | 0.0 | 8.0 | 0.00 | 0.00 | 0.00 | 75 | 1012.7 |
| 20260502204653 | 15 | 269 | 1.6 | 14.5 | 0.00 | 0.00 | 0.00 | 75 | 1013.1 |
| 20260502203214 | 15 | 201 | 4.8 | 11.3 | 0.00 | 0.00 | 0.00 | 76 | 1013.1 |
| 20260502201628 | 15 | 292 | 4.8 | 11.3 | 0.00 | 0.00 | 0.00 | 76 | 1013.3 |
| 20260502200211 | 13 | 298 | 1.6 | 9.7 | 0.00 | 0.00 | 0.00 | 79 | 1013.4 |
| 20260502194647 | 13 | 279 | 3.2 | 11.3 | 0.00 | 0.00 | 0.00 | 78 | 1013.7 |
| 20260502193151 | 13 | 273 | 3.2 | 6.4 | 0.00 | 0.00 | 0.00 | 77 | 1013.7 |
| 20260502191623 | 13 | 225 | 0.0 | 0.0 | 0.00 | 0.00 | 0.00 | 79 | 1013.9 |
| 20260502190202 | 12 | 244 | 0.0 | 0.0 | 0.00 | 0.00 | 0.00 | 80 | 1014.0 |
| 20260502184619 | 12 | 246 | 0.0 | 0.0 | 0.00 | 0.00 | 0.00 | 81 | 1014.1 |
| 20260502183134 | 11 | 245 | 0.0 | 0.0 | 0.00 | 0.00 | 0.00 | 82 | 1014.2 |
| 20260502181655 | 11 | 232 | 0.0 | 0.0 | 0.00 | 0.00 | 0.00 | 82 | 1014.3 |
| 20260502180209 | 11 | 232 | 0.0 | 0.0 | 0.00 | 0.00 | 0.00 | 81 | 1014.3 |
| 20260502170209 | 10 | 289 | 0.0 | 0.0 | 0.00 | 0.00 | 0.00 | 85 | 1014.8 |
| 20260502163209 | 10 | 289 | 0.0 | 0.0 | 0.00 | 0.00 | 0.00 | 86 | 1015.0 |
| 20260502161715 | 10 | 290 | 0.0 | 0.0 | 0.00 | 0.00 | 0.00 | 86 | 1015.0 |
| 20260502160220 | 10 | 290 | 0.0 | 0.0 | 0.00 | 0.00 | 0.00 | 85 | 1015.0 |
| 20260502151659 | 10 | 290 | 0.0 | 0.0 | 0.00 | 0.00 | 0.00 | 86 | 1015.0 |
| 20260502150159 | 10 | 290 | 0.0 | 0.0 | 0.00 | 0.00 | 0.00 | 86 | 1015.0 |
| 20260502130155 | -17 | 0.0 | 0.0 | 0.00 | 0.00 | 0.00 | 1014.7 | ||
| 20260502123202 | -17 | 0.0 | 0.0 | 0.00 | 0.00 | 0.00 | 1014.4 | ||
| 20260502121641 | -17 | 0.0 | 0.0 | 0.00 | 0.00 | 0.00 | 1014.7 | ||
| 20260502120118 | -17 | 0.0 | 0.0 | 0.00 | 0.00 | 0.00 | 1014.7 | ||
| 20260502114637 | -17 | 0.0 | 0.0 | 0.00 | 0.00 | 0.00 | 1014.8 | ||
| 20260502113158 | -17 | 0.0 | 0.0 | 0.00 | 0.00 | 0.00 | 1014.9 | ||
| 20260502111642 | -17 | 0.0 | 0.0 | 0.00 | 0.00 | 0.00 | 1014.7 | ||
| 20260502110149 | -17 | 0.0 | 0.0 | 0.00 | 0.00 | 0.00 | 1015.0 | ||
| 20260502104649 | -17 | 0.0 | 0.0 | 0.00 | 0.00 | 0.00 | 1014.9 | ||
| 20260502103121 | -17 | 0.0 | 0.0 | 0.00 | 0.00 | 0.00 | 1014.9 | ||
| 20260502101646 | -17 | 0.0 | 0.0 | 0.00 | 0.00 | 0.00 | 1015.1 | ||
| 20260502100151 | -17 | 0.0 | 0.0 | 0.00 | 0.00 | 0.00 | 1015.0 | ||
| 20260502090130 | -17 | 0.0 | 0.0 | 0.00 | 0.00 | 0.00 | 1015.3 | ||
| 20260502070117 | 11 | 290 | 0.0 | 6.4 | 0.00 | 0.00 | 0.00 | 81 | 1015.9 |
| 20260502064636 | 12 | 292 | 0.0 | 3.2 | 0.00 | 0.00 | 0.00 | 80 | 1016.1 |
| 20260502063131 | 12 | 292 | 3.2 | 8.0 | 0.00 | 0.00 | 0.00 | 79 | 1016.1 |
| 20260502061554 | 12 | 292 | 4.8 | 11.3 | 0.00 | 0.00 | 0.00 | 80 | 1016.1 |
| 20260502060154 | 12 | 298 | 3.2 | 8.0 | 0.00 | 0.00 | 0.00 | 78 | 1016.3 |
| 20260502054643 | 12 | 304 | 0.0 | 8.0 | 0.00 | 0.00 | 0.00 | 77 | 1016.2 |
| 20260502053149 | 13 | 290 | 0.0 | 0.0 | 0.00 | 0.00 | 0.00 | 77 | 1016.2 |
| 20260502051643 | 13 | 284 | 0.0 | 0.0 | 0.00 | 0.00 | 0.00 | 79 | 1016.1 |